NORTHEAST SUFFOLK  -  Rip Current Statement Rip Current Statement     Air Quality Alert Air Quality Alert        NORTHERN NASSAU  -  Rip Current Statement Rip Current Statement     Air Quality Alert Air Quality Alert        NORTHERN QUEENS  -  Rip Current Statement Rip Current Statement     Air Quality Alert Air Quality Alert        NORTHWEST SUFFOLK  -  Rip Current Statement Rip Current Statement     Air Quality Alert Air Quality Alert        SOUTHEAST SUFFOLK  -  Rip Current Statement Rip Current Statement     Air Quality Alert Air Quality Alert        SOUTHERN NASSAU  -  Rip Current Statement Rip Current Statement     Air Quality Alert Air Quality Alert        SOUTHERN QUEENS  -  Rip Current Statement Rip Current Statement     Air Quality Alert Air Quality Alert        SOUTHWEST SUFFOLK  -  Rip Current Statement Rip Current Statement     Air Quality Alert Air Quality Alert      

Active alerts

Northern Queens
  Details for Northern Queens Rip Current Statement  +1 additional alert
Southern Queens
  Details for Southern Queens Rip Current Statement  +1 additional alert
Northern Nassau
  Details for Northern Nassau Rip Current Statement  +1 additional alert
Southern Nassau
  Details for Southern Nassau Rip Current Statement  +1 additional alert
Northwest Suffolk
  Details for Northwest Suffolk Rip Current Statement  +1 additional alert
Southwest Suffolk
  Details for Southwest Suffolk Rip Current Statement  +1 additional alert
Northeast Suffolk
  Details for Northeast Suffolk Rip Current Statement  +1 additional alert
Southeast Suffolk
  Details for Southeast Suffolk Rip Current Statement  +1 additional alert


WXM80 ListenWXM80 Stop

You find our weather info also at:

UK Metoffice

WeatherCloud

Weather Underground

Northeastern Weather Network

AWEKAS

Citizen Weather Observer Program (CWOP)

HAMweather, WeatherForYou, PWS Weather


Weather Underground History page Text

Daily Summary for October 30, 2017 Units:  Metric    English   Both
« Previous Day
Next Day »
Daily Weekly Monthly Yearly Custom
  High: Low: Average:
Temperature: 18.7 °C 8.8 °C 12.7 °C
Dew Point: 18 °C 4.2 °C 8.8 °C
Humidity: 97 % 57 % 78 %
Wind Speed: 20.9 km/h 0 km/h 7.9 km/h
Wind Gust: 50 km/h - -
Wind:- - WSW
Pressure: 1012.1 hPa 981.3 hPa -
Precipitation: 17.27 mm    
Historical Graphs
 
 
Tabular Data for October 30, 2017
Time Temperature Dew Point Pressure Wind Wind Speed Wind Gust Humidity Rainfall Rate (Hourly)
00:01 18.7 °C 18 °C 981.6 hPa SSW 4.3 km/h 11.3 km/h 96 % 1.27 mm
00:06 18.6 °C 17.7 °C 982.3 hPa South 17.7 km/h 20.4 km/h 95 % 1.27 mm
00:11 18.4 °C 17.6 °C 982.3 hPa SW 10.8 km/h 20.4 km/h 95 % 1.52 mm
00:16 18.3 °C 17.3 °C 982.6 hPa SSW 7.4 km/h 25.9 km/h 94 % 1.27 mm
00:21 18.2 °C 17.2 °C 983 hPa SW 5 km/h 16.1 km/h 94 % 1.52 mm
00:26 18.2 °C 17.2 °C 981.3 hPa SW 3.5 km/h 9.7 km/h 94 % 1.27 mm
00:31 18.1 °C 17.1 °C 983 hPa WSW 8.5 km/h 27.8 km/h 94 % 1.52 mm
00:36 17.9 °C 16.9 °C 981.3 hPa SSW 5.6 km/h 18.5 km/h 94 % 1.27 mm
00:41 17.8 °C 16.8 °C 981.6 hPa SSW 3.2 km/h 5.6 km/h 94 % 1.52 mm
00:46 17.7 °C 16.7 °C 983 hPa SSW 5.6 km/h 11.1 km/h 94 % 1.27 mm
00:51 17.6 °C 16.4 °C 981.9 hPa West 5.3 km/h 6.4 km/h 93 % 1.52 mm
00:56 17.4 °C 16.3 °C 983 hPa SW 6 km/h 9.3 km/h 93 % 1.52 mm
01:01 17.3 °C 16.1 °C 982.3 hPa WSW 8 km/h 11.1 km/h 93 % 1.52 mm
01:06 17.2 °C 16 °C 982.6 hPa SW 8.4 km/h 16.7 km/h 93 % 1.78 mm
01:11 17.1 °C 15.9 °C 984 hPa WSW 2.7 km/h 5.6 km/h 93 % 1.78 mm
01:16 17 °C 15.8 °C 984 hPa West 2.4 km/h 3.7 km/h 93 % 1.78 mm
01:22 16.9 °C 15.8 °C 983.6 hPa WSW 0.5 km/h 1.9 km/h 93 % 1.52 mm
01:27 16.8 °C 15.7 °C 983.6 hPa WSW 1.3 km/h 5.6 km/h 93 % 1.78 mm
01:32 16.8 °C 15.7 °C 982.6 hPa Calm   1.9 km/h 93 % 1.78 mm
01:37 16.7 °C 15.6 °C 984 hPa WSW 0.2 km/h 3.7 km/h 93 % 1.52 mm
01:42 16.6 °C 15.5 °C 984 hPa Calm   1.9 km/h 93 % 1.52 mm
01:47 16.5 °C 15.4 °C 984 hPa Calm     93 % 1.52 mm
01:52 16.4 °C 15.3 °C 984.3 hPa WSW 0.5 km/h 5.6 km/h 93 % 1.78 mm
02:02 16.2 °C 15.1 °C 983 hPa Calm     93 % 1.78 mm
02:07 16.2 °C 15.1 °C 984.3 hPa WSW 0.2 km/h   93 % 1.52 mm
02:12 16.1 °C 15.2 °C 983.3 hPa WSW 0.5 km/h 1.6 km/h 94 % 1.52 mm
02:17 16.1 °C 15.2 °C 983.3 hPa Calm     94 % 1.52 mm
02:22 16.1 °C 15.3 °C 983.3 hPa WSW 0.2 km/h   95 % 1.52 mm
02:27 16.1 °C 15.3 °C 983.6 hPa WSW 1.1 km/h 3.7 km/h 95 % 1.52 mm
02:32 16.1 °C 15.3 °C 983.3 hPa WSW 0.3 km/h 5.6 km/h 95 % 1.27 mm
02:38 16 °C 15.2 °C 983 hPa SW 3.1 km/h 5.6 km/h 95 % 1.52 mm
02:43 16 °C 15.2 °C 984.6 hPa Calm   3.7 km/h 95 % 1.27 mm
02:48 16 °C 15.2 °C 984.6 hPa Calm   1.9 km/h 95 % 1.27 mm
02:53 16 °C 15.2 °C 984.6 hPa SSE 0.5 km/h 9.3 km/h 95 % 1.27 mm
02:58 15.9 °C 15.2 °C 985 hPa Calm     95 % 1.27 mm
03:03 15.9 °C 15.2 °C 984.6 hPa Calm     95 % 1.02 mm
03:08 15.9 °C 15.2 °C 984.6 hPa Calm     95 % 1.27 mm
03:13 15.9 °C 15.2 °C 984.6 hPa Calm     95 % 1.02 mm
03:18 15.9 °C 15.1 °C 984.6 hPa Calm   1.9 km/h 95 % 1.27 mm
03:23 15.8 °C 15.1 °C 984.6 hPa Calm     95 % 1.27 mm
03:28 15.8 °C 15.2 °C 984.6 hPa Calm     96 % 1.02 mm
03:33 15.8 °C 15.2 °C 984.6 hPa Calm     96 % 1.27 mm
03:38 15.8 °C 15.2 °C 984.6 hPa Calm     96 % 1.02 mm
03:43 15.8 °C 15.2 °C 984.6 hPa Calm     96 % 1.02 mm
03:48 15.8 °C 15.2 °C 984.3 hPa Calm     96 % 1.27 mm
03:53 15.8 °C 15.2 °C 984.3 hPa Calm     96 % 1.02 mm
03:59 15.8 °C 15.2 °C 984.3 hPa Calm   1.9 km/h 96 % 1.27 mm
04:04 15.7 °C 15.1 °C 984.3 hPa SSE 0.3 km/h 1.6 km/h 96 % 1.27 mm
04:09 15.7 °C 15.1 °C 984.3 hPa Calm     96 % 1.02 mm
04:14 15.7 °C 15.1 °C 984 hPa Calm     96 % 1.27 mm
04:19 15.7 °C 15.1 °C 984 hPa Calm     96 % 1.02 mm
04:24 15.7 °C 15.1 °C 984 hPa SSE 2.6 km/h 5.6 km/h 96 % 1.02 mm
04:29 15.7 °C 15.1 °C 984 hPa SSE 2.4 km/h 5.6 km/h 96 % 1.27 mm
04:34 15.7 °C 15.1 °C 983.6 hPa SSE 2.1 km/h 5.6 km/h 96 % 1.02 mm
04:39 15.7 °C 15.1 °C 983.6 hPa Calm     96 % 1.02 mm
04:44 15.7 °C 15.1 °C 983.6 hPa SSE 0.2 km/h 1.9 km/h 96 % 1.02 mm
04:49 15.8 °C 15.3 °C 983.6 hPa SE 2.3 km/h 9.3 km/h 97 % 1.02 mm
04:54 15.8 °C 15.3 °C 983.3 hPa SE 0.5 km/h 3.7 km/h 97 % 1.02 mm
04:59 15.9 °C 15.4 °C 983.3 hPa SE 0.6 km/h 6.4 km/h 97 % 0.76 mm
05:04 15.9 °C 15.4 °C 983 hPa SE 1.3 km/h 5.6 km/h 97 % 0.76 mm
05:10 16 °C 15.5 °C 983 hPa SE 1.3 km/h 3.7 km/h 97 % 0.76 mm
05:20 16.2 °C 15.7 °C 982.6 hPa SE 4.2 km/h 18.5 km/h 97 % 0.76 mm
05:25 16.3 °C 15.8 °C 982.6 hPa South 11.6 km/h 25.9 km/h 97 % 0.76 mm
05:30 16.3 °C 15.8 °C 982.6 hPa South 9.7 km/h 18.5 km/h 97 % 0.51 mm
05:35 16.2 °C 15.7 °C 982.6 hPa SSW 3.4 km/h 6.4 km/h 97 % 0.51 mm
05:40 16.2 °C 15.6 °C 983 hPa South 3.2 km/h 9.3 km/h 96 % 0.76 mm
05:45 16.1 °C 15.4 °C 983.3 hPa WSW 11.1 km/h 31.5 km/h 96 % 0.51 mm
05:50 15.8 °C 15 °C 983.6 hPa WSW 6.4 km/h 9.7 km/h 95 % 0.51 mm
05:55 15.5 °C 14.6 °C 983.6 hPa South 3.9 km/h 14.8 km/h 94 % 0.76 mm
06:00 15.2 °C 14.1 °C 984 hPa WSW 9 km/h 18.5 km/h 93 % 0.76 mm
06:05 14.9 °C 13.7 °C 984.3 hPa WSW 13.5 km/h 30.6 km/h 92 % 0.76 mm
06:10 14.6 °C 13.1 °C 984.3 hPa NW 15.6 km/h 22.5 km/h 91 % 1.02 mm
06:15 14.1 °C 12.7 °C 984.6 hPa WNW 13.2 km/h 19.3 km/h 91 % 1.02 mm
06:21 13.7 °C 12.1 °C 984.6 hPa WSW 10.5 km/h 20.4 km/h 90 % 0.76 mm
06:26 13.3 °C 11.8 °C 985 hPa NW 14 km/h 33.3 km/h 91 % 1.02 mm
06:31 12.8 °C 11.2 °C 985.3 hPa SSW 8.5 km/h 31.5 km/h 90 % 1.02 mm
06:36 12.6 °C 11.1 °C 985.7 hPa WNW 5.3 km/h 14.8 km/h 91 % 0.76 mm
06:41 12.4 °C 11.1 °C 985.7 hPa SSW 13.8 km/h 20.4 km/h 92 % 1.02 mm
06:46 12.1 °C 10.7 °C 986.3 hPa WSW 10.9 km/h 24.1 km/h 91 % 1.02 mm
06:51 11.9 °C 10.7 °C 986.3 hPa WSW 9 km/h 11.3 km/h 92 % 1.02 mm
06:56 11.7 °C 10.4 °C 986.7 hPa WSW 14.8 km/h 25.9 km/h 92 % 0.76 mm
07:01 11.6 °C 10.4 °C 987 hPa WNW 9.3 km/h 25.9 km/h 93 % 1.02 mm
07:06 11.4 °C 10.3 °C 987.4 hPa SW 14.5 km/h 22.5 km/h 93 % 1.02 mm
07:11 11.3 °C 10.2 °C 987.7 hPa WSW 15.6 km/h 18.5 km/h 93 % 0.76 mm
07:16 11.2 °C 10.2 °C 987.7 hPa West 11.3 km/h 29.6 km/h 94 % 1.02 mm
07:22 11 °C 10.1 °C 988 hPa West 13.5 km/h 22.2 km/h 94 % 1.02 mm
07:27 10.9 °C 9.9 °C 988.4 hPa SW 11.6 km/h 35.2 km/h 94 % 0.76 mm
07:32 10.8 °C 9.9 °C 988.7 hPa SSW 7.7 km/h 20.4 km/h 94 % 0.76 mm
07:37 10.7 °C 9.8 °C 988.7 hPa WNW 13 km/h 22.2 km/h 94 % 0.76 mm
07:42 10.7 °C 9.9 °C 989.1 hPa WNW 6.4 km/h 18.5 km/h 95 % 0.76 mm
07:47 10.6 °C 9.6 °C 989.1 hPa NW 13.8 km/h 20.4 km/h 94 % 0.76 mm
07:52 10.4 °C 9.5 °C 989.4 hPa WNW 6.1 km/h 16.7 km/h 94 % 0.76 mm
07:57 10.4 °C 9.6 °C 989.7 hPa SSW 13 km/h 18.5 km/h 95 % 0.51 mm
08:02 10.3 °C 9.5 °C 990.1 hPa West 13.8 km/h 27.8 km/h 95 % 0.76 mm
08:07 10.1 °C 9.2 °C 990.4 hPa WNW 14.3 km/h 31.5 km/h 94 % 0.76 mm
08:12 9.9 °C 9 °C 990.4 hPa SSW 13.2 km/h 31.5 km/h 94 % 0.76 mm
08:17 9.8 °C 8.8 °C 990.7 hPa WSW 19 km/h 29.6 km/h 94 % 0.51 mm
08:22 9.7 °C 8.6 °C 991.1 hPa West 20.9 km/h 50 km/h 93 % 0.51 mm
08:27 9.4 °C 8.2 °C 991.1 hPa WSW 13.5 km/h 20.4 km/h 92 % 0.51 mm
08:37 9.4 °C 8.2 °C 991.8 hPa SW 18.3 km/h 31.5 km/h 92 % 0.76 mm
08:42 9.3 °C 7.9 °C 992.1 hPa West 15 km/h 24.1 km/h 91 % 0.51 mm
08:47 9.3 °C 7.9 °C 992.4 hPa WNW 20.6 km/h 40.7 km/h 91 % 0.51 mm
08:52 9.3 °C 7.9 °C 992.4 hPa SSW 14.6 km/h 24.1 km/h 91 % 0.76 mm
08:58 9.3 °C 7.9 °C 993.1 hPa WNW 14.2 km/h 25.7 km/h 91 % 0.76 mm
09:03 9.2 °C 7.8 °C 993.1 hPa WNW 19.2 km/h 31.5 km/h 91 % 0.51 mm
09:08 9.1 °C 7.7 °C 993.8 hPa SW 17.4 km/h 25.9 km/h 91 % 0.51 mm
09:13 8.9 °C 7.4 °C 993.8 hPa NNW 15.9 km/h 33.3 km/h 90 % 0.51 mm
09:18 8.9 °C 7.5 °C 993.8 hPa SW 10 km/h 16.7 km/h 91 % 0.76 mm
09:23 8.8 °C 7.3 °C 994.1 hPa NW 20.1 km/h 35.4 km/h 90 % 0.76 mm
09:28 8.8 °C 7.1 °C 994.1 hPa West 17.7 km/h 29.6 km/h 89 % 0.51 mm
09:33 8.9 °C 7.2 °C 994.5 hPa WSW 17.9 km/h 29.6 km/h 89 % 0.76 mm
09:38 8.9 °C 6.9 °C 994.8 hPa West 20 km/h 33.3 km/h 87 % 0.76 mm
09:43 9.1 °C 7.1 °C 994.8 hPa WSW 15.4 km/h 25.9 km/h 87 % 0.76 mm
09:48 9.3 °C 7.1 °C 995.1 hPa WSW 16.7 km/h 40.7 km/h 86 % 0.76 mm
09:53 9.4 °C 7.2 °C 995.5 hPa SW 18.2 km/h 32.2 km/h 86 % 0.76 mm
09:58 9.6 °C 7.2 °C 995.5 hPa West 6.9 km/h 20.4 km/h 85 % 0.76 mm
10:03 9.7 °C 7.5 °C 995.8 hPa North 9.8 km/h 24.1 km/h 86 % 0.76 mm
10:08 9.9 °C 7.5 °C 995.8 hPa SW 9.5 km/h 20.4 km/h 85 % 0.76 mm
10:14 10 °C 7.4 °C 996.2 hPa WNW 12.1 km/h 25.9 km/h 84 % 1.02 mm
10:19 10.1 °C 7.2 °C 996.5 hPa West 14 km/h 31.5 km/h 82 % 0.76 mm
10:24 10.2 °C 7.1 °C 996.5 hPa West 19.8 km/h 35.2 km/h 81 % 0.76 mm
10:29 10.3 °C 7 °C 996.8 hPa WSW 12.4 km/h 27.8 km/h 80 % 1.02 mm
10:34 10.5 °C 7.4 °C 996.5 hPa West 10.9 km/h 27.8 km/h 81 % 0.76 mm
10:39 10.7 °C 7.6 °C 996.8 hPa WNW 7.6 km/h 11.3 km/h 81 % 0.76 mm
10:44 10.8 °C 7.3 °C 996.8 hPa WSW 16.7 km/h 27.8 km/h 79 % 0.76 mm
10:49 10.9 °C 7.2 °C 996.8 hPa NW 16.6 km/h 31.5 km/h 78 % 1.02 mm
10:54 11 °C 7.3 °C 997.2 hPa West 18.2 km/h 29.6 km/h 78 % 0.76 mm
10:59 11.2 °C 7.3 °C 997.5 hPa West 12.9 km/h 27.8 km/h 77 % 0.76 mm
11:04 11.4 °C 7.3 °C 997.5 hPa WSW 11.1 km/h 25.9 km/h 76 % 0.76 mm
11:09 11.6 °C 7.3 °C 997.5 hPa WSW 4.8 km/h 18.5 km/h 75 % 0.51 mm
11:14 11.7 °C 7.6 °C 997.9 hPa West 13.7 km/h 29.6 km/h 76 % 0.76 mm
11:19 11.8 °C 7.3 °C 998.5 hPa WNW 13 km/h 27.8 km/h 74 % 0.76 mm
11:24 11.8 °C 7.2 °C 998.5 hPa West 17.1 km/h 42.6 km/h 73 % 0.76 mm
11:30 11.8 °C 7.1 °C 999.2 hPa West 17.7 km/h 29 km/h 73 % 0.76 mm
11:35 11.7 °C 7.2 °C 999.2 hPa WSW 12.9 km/h 50 km/h 74 % 0.76 mm
11:40 11.7 °C 7.6 °C 999.2 hPa West 14.5 km/h 19.3 km/h 76 % 0.76 mm
11:45 11.7 °C 7.2 °C 999.5 hPa WSW 15.1 km/h 31.5 km/h 74 % 0.76 mm
11:50 11.7 °C 7.4 °C 999.5 hPa SSW 12.1 km/h 20.4 km/h 75 % 0.51 mm
11:55 11.8 °C 7.3 °C 999.9 hPa West 13.4 km/h 35.2 km/h 74 % 0.76 mm
12:00 11.8 °C 6.9 °C 999.9 hPa West 16.9 km/h 35.4 km/h 72 % 0.76 mm
12:05 11.9 °C 6.4 °C 999.9 hPa SW 15.9 km/h 25.9 km/h 69 % 0.76 mm
12:10 12.1 °C 7.2 °C 999.9 hPa WSW 16.7 km/h 31.5 km/h 72 % 0.51 mm
12:15 12.2 °C 7.1 °C 1000.6 hPa WNW 20.8 km/h 31.5 km/h 71 % 0.51 mm
12:20 12.4 °C 7.1 °C 1000.2 hPa WNW 19.2 km/h 37 km/h 70 % 0.76 mm
12:25 12.4 °C 6.7 °C 1000.6 hPa WSW 15.6 km/h 25.9 km/h 68 % 0.76 mm
12:30 12.5 °C 7.2 °C 1000.9 hPa SSW 12.1 km/h 22.2 km/h 70 % 0.51 mm
12:35 12.6 °C 7.4 °C 1000.9 hPa SW 8 km/h 18.5 km/h 71 % 0.51 mm
12:40 12.6 °C 6.4 °C 1001.2 hPa WSW 17.2 km/h 32.2 km/h 66 % 0.51 mm
12:45 12.7 °C 5.8 °C 1001.2 hPa WNW 15.9 km/h 29.6 km/h 63 % 0.76 mm
12:56 12.7 °C 6.1 °C 1001.2 hPa WNW 14.5 km/h 32.2 km/h 64 % 0 mm
13:01 12.8 °C 6.4 °C 1001.2 hPa WNW 11.6 km/h 27.8 km/h 65 % 0.51 mm
13:06 12.9 °C 6.9 °C 1001.2 hPa NW 10.5 km/h 24.1 km/h 67 % 0.76 mm
13:11 13 °C 6.6 °C 1001.2 hPa WSW 13.5 km/h 24.1 km/h 65 % 0.76 mm
13:16 13 °C 6.8 °C 1001.2 hPa SSW 5.6 km/h 18.5 km/h 66 % 0.76 mm
13:21 13.1 °C 6.6 °C 1001.2 hPa NW 12.7 km/h 20.9 km/h 65 % 0.51 mm
13:26 13.2 °C 6.5 °C 1001.2 hPa WSW 17.2 km/h 29.6 km/h 64 % 0.51 mm
13:31 13.2 °C 6.8 °C 1001.6 hPa SSW 10.5 km/h 14.8 km/h 65 % 0.51 mm
13:36 13.4 °C 6.9 °C 1001.9 hPa West 10.9 km/h 27.4 km/h 65 % 0.76 mm
13:41 13.6 °C 6.4 °C 1001.9 hPa WNW 17.4 km/h 42.6 km/h 62 % 0.76 mm
13:46 13.8 °C 6.4 °C 1001.9 hPa WSW 13.2 km/h 25.9 km/h 61 % 0.51 mm
13:51 14.1 °C 6.7 °C 1002.3 hPa WNW 14.6 km/h 31.5 km/h 61 % 0.51 mm
13:56 14.2 °C 6.8 °C 1002.3 hPa WSW 7.9 km/h 13 km/h 61 % 0.76 mm
14:01 14.4 °C 6.9 °C 1002.3 hPa WSW 12.6 km/h 16.7 km/h 61 % 0.76 mm
14:06 14.6 °C 7.1 °C 1002.6 hPa WSW 8.5 km/h 20.4 km/h 61 % 0.51 mm
14:12 14.7 °C 7.4 °C 1002.6 hPa NW 11.1 km/h 20.9 km/h 62 % 0.51 mm
14:17 14.8 °C 7.3 °C 1002.9 hPa SW 13.5 km/h 19.3 km/h 61 % 0.51 mm
14:22 14.8 °C 6.8 °C 1002.9 hPa SW 12.4 km/h 25.9 km/h 59 % 0.76 mm
14:27 14.7 °C 7.1 °C 1003.3 hPa SW 7.7 km/h 22.2 km/h 60 % 0.76 mm
14:32 14.7 °C 6.3 °C 1003.3 hPa SW 16.9 km/h 40.7 km/h 57 % 0.51 mm
14:37 14.7 °C 6.7 °C 1003.3 hPa WNW 13.5 km/h 24.1 km/h 59 % 0.51 mm
14:42 14.7 °C 7.3 °C 1003.3 hPa West 9 km/h 20.9 km/h 61 % 0.76 mm
14:47 14.7 °C 6.8 °C 1003.3 hPa SW 12.1 km/h 20.4 km/h 59 % 0.76 mm
14:52 14.7 °C 6.5 °C 1003.6 hPa SSW 11.6 km/h 31.5 km/h 58 % 0.76 mm
15:02 14.6 °C 6.4 °C 1003.9 hPa SW 11.3 km/h 24.1 km/h 58 % 0.76 mm
15:07 14.6 °C 6.4 °C 1004.3 hPa WSW 13.2 km/h 25.9 km/h 58 % 0.76 mm
15:10 14.5 °C 6.6 °C 1004.3 hPa SW 13.2 km/h 29.6 km/h 59 % 0.76 mm
15:15 14.3 °C 5.9 °C 1004.3 hPa WSW 17.7 km/h 32.2 km/h 57 % 0.76 mm
15:20 14.2 °C 6 °C 1004.6 hPa NW 9.7 km/h 27.8 km/h 58 % 0.51 mm
15:25 14.1 °C 5.7 °C 1004.6 hPa SSW 12.6 km/h 22.2 km/h 57 % 0.76 mm
15:30 13.9 °C 5.8 °C 1004.6 hPa WSW 10.5 km/h 18.5 km/h 58 % 0.76 mm
15:35 13.7 °C 5.6 °C 1005 hPa WNW 14.5 km/h 27.8 km/h 58 % 0.76 mm
15:40 13.6 °C 5.7 °C 1005.3 hPa WSW 6.1 km/h 22.2 km/h 59 % 0.51 mm
15:45 13.5 °C 5.6 °C 1005.3 hPa WSW 8.9 km/h 18.5 km/h 59 % 0.51 mm
15:51 13.4 °C 5.6 °C 1005 hPa NW 13 km/h 29.6 km/h 59 % 0.51 mm
15:56 13.3 °C 5.4 °C 1005 hPa WSW 4.8 km/h 19.3 km/h 59 % 0 mm
16:01 13.2 °C 5.6 °C 1005.3 hPa SSW 12.9 km/h 22.2 km/h 60 % 0.51 mm
16:06 13.2 °C 5.3 °C 1005.3 hPa WNW 10 km/h 20.4 km/h 59 % 0.51 mm
16:11 13.1 °C 5.2 °C 1005.6 hPa WSW 13.4 km/h 27.8 km/h 59 % 0.51 mm
16:16 13 °C 5.4 °C 1006 hPa SSW 5 km/h 7.4 km/h 60 % 0.51 mm
16:21 12.9 °C 5.3 °C 1006 hPa SW 7.7 km/h 18.5 km/h 60 % 0.76 mm
16:26 12.8 °C 5.3 °C 1005.6 hPa WSW 7.9 km/h 18.5 km/h 60 % 0.51 mm
16:31 12.8 °C 5.7 °C 1006 hPa WSW 8.9 km/h 16.1 km/h 62 % 0.51 mm
16:36 12.7 °C 5.4 °C 1006 hPa SSW 9 km/h 18.5 km/h 61 % 0.51 mm
16:41 12.7 °C 5.3 °C 1006.3 hPa SW 10.9 km/h 14.8 km/h 61 % 0.76 mm
16:46 12.6 °C 4.8 °C 1006.3 hPa SW 7.1 km/h 22.2 km/h 59 % 0.76 mm
16:51 12.5 °C 4.4 °C 1006.3 hPa WSW 5.8 km/h 13 km/h 58 % 0.51 mm
16:56 12.4 °C 4.7 °C 1006.3 hPa SSW 9 km/h 14.8 km/h 59 % 0.51 mm
17:01 12.4 °C 4.8 °C 1006.7 hPa SW 8.9 km/h 13 km/h 60 % 0.51 mm
17:06 12.3 °C 4.6 °C 1006.7 hPa SW 10.6 km/h 19.3 km/h 59 % 0.76 mm
17:12 12.3 °C 4.7 °C 1006.7 hPa WSW 5.5 km/h 6.4 km/h 60 % 0.76 mm
17:17 12.2 °C 4.7 °C 1007 hPa WSW 9.8 km/h 20.9 km/h 60 % 0.76 mm
17:22 12.2 °C 4.6 °C 1007 hPa SSW 9.7 km/h 16.1 km/h 60 % 0.51 mm
17:27 12.1 °C 4.8 °C 1007 hPa NW 7.2 km/h 20.9 km/h 61 % 0.51 mm
17:32 12.1 °C 5 °C 1007 hPa SSW 5.1 km/h 8 km/h 62 % 0.76 mm
17:37 12 °C 4.9 °C 1007 hPa SSW 5.8 km/h 11.1 km/h 62 % 0.76 mm
17:42 11.9 °C 4.8 °C 1007.3 hPa WSW 6.8 km/h 13 km/h 62 % 0.51 mm
17:47 11.8 °C 4.8 °C 1007.3 hPa WSW 5 km/h 11.1 km/h 62 % 0.51 mm
17:52 11.8 °C 4.7 °C 1007.3 hPa SW 4.8 km/h 11.1 km/h 62 % 0.51 mm
18:07 11.6 °C 5 °C 1007.7 hPa SSW 3.7 km/h 5.6 km/h 64 % 0.51 mm
18:12 11.5 °C 5.2 °C 1008 hPa SSW 0.6 km/h 5.6 km/h 65 % 0.51 mm
18:17 11.4 °C 5.3 °C 1008 hPa West 7.6 km/h 8 km/h 66 % 0.51 mm
18:23 11.3 °C 4.7 °C 1008.4 hPa SW 4 km/h 11.1 km/h 64 % 0.51 mm
18:28 11.2 °C 4.9 °C 1008.4 hPa WSW 4.3 km/h 11.1 km/h 65 % 0.51 mm
18:33 11.2 °C 4.8 °C 1008.4 hPa SSW 6 km/h 11.3 km/h 65 % 0.51 mm
18:38 11.1 °C 5.2 °C 1008.4 hPa SSW 1 km/h 5.6 km/h 67 % 0.51 mm
18:43 11.1 °C 5.2 °C 1008.4 hPa SSW 6.6 km/h 9.3 km/h 67 % 0.51 mm
18:48 11 °C 4.9 °C 1008.4 hPa WSW 6.3 km/h 11.1 km/h 66 % 0.51 mm
18:53 10.9 °C 4.8 °C 1008.4 hPa WSW 7.9 km/h 18.5 km/h 66 % 0.51 mm
18:58 10.8 °C 4.7 °C 1008.7 hPa SSW 6.1 km/h 11.1 km/h 66 % 0.25 mm
19:03 10.8 °C 4.9 °C 1008.7 hPa WSW 6.8 km/h 9.3 km/h 67 % 0.51 mm
19:08 10.8 °C 5.1 °C 1008.7 hPa WSW 2.9 km/h 5.6 km/h 68 % 0.51 mm
19:11 10.8 °C 5.1 °C 1008.7 hPa WSW 1.8 km/h 5.6 km/h 68 % 0.51 mm
19:16 10.7 °C 5.1 °C 1009 hPa West 1.4 km/h 5.6 km/h 68 % 0.51 mm
19:21 10.6 °C 4.9 °C 1009.4 hPa SW 2.9 km/h 8 km/h 68 % 0.51 mm
19:26 10.6 °C 4.9 °C 1009.4 hPa WSW 2.4 km/h 7.4 km/h 68 % 0.51 mm
19:31 10.4 °C 5 °C 1009.4 hPa SSW 2.4 km/h 5.6 km/h 69 % 0.25 mm
19:36 10.4 °C 5 °C 1009.4 hPa SW 0.2 km/h 1.9 km/h 69 % 0.25 mm
19:41 10.3 °C 5.3 °C 1009.7 hPa West 1.1 km/h 1.6 km/h 71 % 0.25 mm
19:46 10.3 °C 5.2 °C 1009.4 hPa West 0.2 km/h 1.9 km/h 71 % 0.51 mm
19:51 10.2 °C 5.2 °C 1009.7 hPa SSW 1.1 km/h 1.9 km/h 71 % 0.51 mm
19:56 10.1 °C 5.1 °C 1009.7 hPa SSW 2.4 km/h 3.7 km/h 71 % 0.51 mm
20:01 10 °C 5 °C 1009 hPa SSW 0.5 km/h 1.9 km/h 71 % 0.51 mm
20:07 9.8 °C 4.8 °C 1010 hPa SSW 0.2 km/h 3.7 km/h 71 % 0.25 mm
20:12 9.7 °C 4.5 °C 1009.7 hPa SW 1 km/h 13 km/h 70 % 0.25 mm
20:17 9.7 °C 4.4 °C 1009.7 hPa SSW 6.9 km/h 16.1 km/h 70 % 0.25 mm
20:22 9.7 °C 4.4 °C 1010 hPa WSW 2.3 km/h 7.4 km/h 70 % 0.25 mm
20:27 9.7 °C 4.4 °C 1010 hPa South 7.6 km/h 14.8 km/h 70 % 0.25 mm
20:32 9.8 °C 4.3 °C 1010 hPa WSW 6.1 km/h 11.1 km/h 69 % 0.51 mm
20:37 9.8 °C 4.4 °C 1010 hPa SW 1.8 km/h 4.8 km/h 69 % 0.51 mm
20:42 9.9 °C 4.4 °C 1010 hPa SSW 4.2 km/h 5.6 km/h 69 % 0.51 mm
20:47 9.9 °C 4.5 °C 1010.4 hPa SW 4.5 km/h 11.1 km/h 69 % 0.25 mm
20:48 9.9 °C 4.5 °C 1010 hPa West 4.5 km/h 9.3 km/h 69 % 0.25 mm
20:53 10.1 °C 4.6 °C 1010 hPa SSW 1 km/h 5.6 km/h 69 % 0.25 mm
20:58 10.1 °C 4.6 °C 1010.4 hPa SSE 3.4 km/h 5.6 km/h 69 % 0.25 mm
21:04 10.1 °C 4.7 °C 1010.4 hPa SSW 0.2 km/h 5.6 km/h 69 % 0.25 mm
21:09 10.2 °C 4.9 °C 1010.4 hPa WSW 3.1 km/h 11.1 km/h 70 % 0.25 mm
21:14 10.2 °C 4.5 °C 1010.7 hPa SW 0.8 km/h 9.3 km/h 68 % 0.25 mm
21:29 10.2 °C 5 °C 1010.7 hPa SSW 5 km/h 13 km/h 70 % 0.25 mm
21:39 10.2 °C 5 °C 1010.7 hPa SW 1.6 km/h 14.8 km/h 70 % 0.25 mm
21:44 10.3 °C 5.1 °C 1010.7 hPa SW 0.6 km/h 3.7 km/h 70 % 0.25 mm
21:49 10.2 °C 5 °C 1010.7 hPa SW 3.5 km/h 9.3 km/h 70 % 0.25 mm
21:54 10.2 °C 5 °C 1010.7 hPa SSW 2.6 km/h 11.3 km/h 70 % 0.25 mm
21:59 10.2 °C 5 °C 1011.1 hPa SSW 4.7 km/h 5.6 km/h 70 % 0.25 mm
22:04 10.3 °C 5.1 °C 1011.1 hPa SW 4.8 km/h 7.4 km/h 70 % 0.25 mm
22:09 10.3 °C 4.9 °C 1011.4 hPa SSW 8.9 km/h 18.5 km/h 69 % 0.25 mm
22:14 10.4 °C 4.9 °C 1011.4 hPa SW 13 km/h 20.4 km/h 69 % 0.51 mm
22:20 10.4 °C 5 °C 1011.4 hPa SSW 6.8 km/h 24.1 km/h 69 % 0.51 mm
22:25 10.6 °C 4.7 °C 1011.4 hPa SSW 4.7 km/h 25.9 km/h 67 % 0.25 mm
22:27 10.6 °C 4.9 °C 1011.1 hPa SSW 1.3 km/h 5.6 km/h 68 % 0.25 mm
22:37 10.7 °C 5 °C 1011.1 hPa WSW 8 km/h 13 km/h 68 % 0.25 mm
22:42 10.7 °C 5 °C 1011.4 hPa SSW 5.5 km/h 13 km/h 68 % 0.25 mm
22:47 10.7 °C 5 °C 1011.4 hPa SSW 5.5 km/h 11.1 km/h 68 % 0.25 mm
22:52 10.7 °C 5.1 °C 1011.4 hPa WSW 1.3 km/h 5.6 km/h 68 % 0.25 mm
22:57 10.7 °C 4.8 °C 1011.4 hPa SW 4.8 km/h 13 km/h 67 % 0.25 mm
23:02 10.7 °C 4.8 °C 1011.4 hPa SW 4.7 km/h 7.4 km/h 67 % 0.25 mm
23:07 10.7 °C 4.8 °C 1011.4 hPa WSW 3.7 km/h 8 km/h 67 % 0.25 mm
23:13 10.7 °C 4.8 °C 1011.7 hPa SW 2.9 km/h 9.3 km/h 67 % 0 mm
23:22 10.6 °C 4.5 °C 1011.7 hPa West 5.3 km/h 19.3 km/h 66 % 0.25 mm
23:25 10.6 °C 4.7 °C 1011.7 hPa WSW 3.4 km/h 9.3 km/h 67 % 0.25 mm
23:28 10.6 °C 4.7 °C 1003.6 hPa WSW 5.8 km/h 8 km/h 67 % 0.25 mm
23:29 10.6 °C 4.7 °C 1011.7 hPa WSW 6 km/h 11.3 km/h 67 % 0.25 mm
23:30 10.6 °C 4.7 °C 1011.7 hPa SW 4.7 km/h 18.5 km/h 67 % 0.25 mm
23:35 10.6 °C 4.2 °C 1011.7 hPa SW 6.8 km/h 13 km/h 65 % 0.25 mm
23:36 10.6 °C 4.4 °C 1011.7 hPa WSW 2.3 km/h 5.6 km/h 66 % 0.25 mm
23:41 10.6 °C 4.4 °C 1012.1 hPa WSW 1.1 km/h 5.6 km/h 66 % 0.25 mm
23:46 10.6 °C 4.4 °C 1012.1 hPa WSW 7.4 km/h 12.9 km/h 66 % 0.25 mm
23:51 10.6 °C 4.4 °C 1012.1 hPa SSW 4 km/h 7.4 km/h 66 % 0.25 mm
23:56 10.6 °C 4.2 °C 1012.1 hPa SW 3.5 km/h 18.5 km/h 65 % 0.25 mm
Crab Meadow Weather
Compliments of Weather Underground - 3 mb

Script developed by  Jim McMurry - jmcmurry@mwt.net Adapted for the template by  Wim van der Kuil - Leuven-Template.eu

Astronomy: One year on Mercury is only 88 days.